Location: Dodgeville, WI 53533, USA
(43.0344°N, 90.0900°W)
Time: 01:37:55
(UTC-06:00)

N. Korean satellite - Pass Details

Date: 25 January 2021
Orbit: 451 x 502 km, 97.2° (Epoch: 04 March)

Event Time Altitude Azimuth Distance (km) Brightness Sun altitude
Rises 06:33:50 0° 353° (N) 2,508 9.9 -9.0°
Reaches altitude 10° 06:36:38 10° 328° (NNW) 1,615 8.8 -8.5°
Maximum altitude 06:38:31 14° 294° (WNW) 1,366 8.2 -8.2°
Drops below altitude 10° 06:40:25 10° 261° (W) 1,597 8.6 -7.9°
Sets 06:43:09 0° 235° (SW) 2,457 9.8 -7.4°
